• Join FlightAware (Why Join?)
  • Login
  • US Flag 
06:27PM EST


 

Airport Tracker/Info


-or-


 

Live Flight TrackerFlight Track Log ✈ BJS542 ✈ 24-Aug-2013 ✈ KSBA - KBUR

Flight Track Log - Related Links

Times and Time Zones

All times are in EDT time to prevent confusion due to time zone crossing. See the BJS542 flight status page for this flight to view local times or setup timezone preferences in your user account.

Time Position Orientation Groundspeed Altitude Reporting Facility
EDT Latitude Longitude Course Direction KTS MPH feet Rate Location/Type
04:19PM 34.4261 -119.8614 256° West 162 186 900  Level Los Angeles Center
04:20PM 34.4161 -119.9111 256° West 215 247 3,900 3,300 Climbing Los Angeles Center
04:21PM 34.3514 -119.8889 164° South 259 298 7,200 2,280 Climbing Los Angeles Center
04:22PM 34.3064 -119.8194 128° Southeast 264 304 8,700 1,680 Climbing Los Angeles Center
04:23PM 34.3097 -119.7125 88° East 289 333 10,700 1,080 Climbing Los Angeles Center
04:24PM 34.3217 -119.5642 84° East 356 410 11,000 120 Climbing Los Angeles Center
04:25PM 34.3286 -119.4411 86° East 366 421 11,000  Level Los Angeles Center
04:26PM 34.3367 -119.3167 85° East 371 427 11,000 -120 Level Los Angeles Center
04:27PM 34.3422 -119.1986 87° East 355 409 10,800 -900 Descending Los Angeles Center
04:28PM 34.3456 -119.0947 88° East 305 351 9,200 -900 Descending Los Angeles Center
04:29PM 34.3525 -118.9933 85° East 299 344 9,000 -480 Descending Los Angeles Center
04:30PM 34.3539 -118.8972 89° East 289 333 8,300 -1,260 Descending Los Angeles Center
04:31PM 34.2933 -118.8386 141° Southeast 284 327 6,500 -1,440 Descending Los Angeles Center
04:32PM 34.2289 -118.7767 142° Southeast 248 285 5,400 -780 Descending Los Angeles Center
04:33PM 34.2103 -118.7047 107° East 234 269 5,000 -600 Descending Los Angeles Center
04:34PM 34.2011 -118.6283 98° East 230 265 4,100 -660 Descending Los Angeles Center
04:35PM 34.2000 -118.5500 91° East 237 273 3,800 -1,020 Descending Southern California TRACON
04:36PM 34.2000 -118.4833 90° East 224 258 2,500 -1,200 Descending Southern California TRACON
04:37PM 34.2000 -118.4167 90° East 173 199 1,500 -720 Descending Southern California TRACON
04:39PM 34.1969 -118.3503 93° East 164 189 800 -480 Descending Los Angeles Center
04:41PM 34.2000 -118.3500 North  Level FlightAware Approximate